Location: Biebesheim
(49.7809°N, 8.4670°E)
Time: 11:39:20
(UTC+00:00)

Daily predictions for brighter satellites

Satellite Brightness Start Highest point End
(mag) Time Altitude Azimuth Time Altitude Azimuth Time Altitude Azimuth
Okean O Rocket 2.1 19:35:03 10° SE 19:39:07 43° ENE 19:43:11 10° N
Cosmos 2100 Rocket 4.3 19:34:31 10° SSW 19:40:46 75° W 19:47:07 10° N
Meteor 1-27 4.2 19:36:36 10° S 19:42:11 70° E 19:47:45 10° NNE
Cosmos 2228 3.1 19:38:34 10° S 19:42:32 49° E 19:46:30 10° NNE
NOSS 3-4 (A) 4.4 19:36:39 10° NW 19:42:48 46° NE 19:50:01 10° ESE
SPOT 5 4.3 19:39:10 10° SSW 19:43:06 34° W 19:47:09 10° NNW
SL-24 R/B 4.3 19:38:50 10° NNE 19:43:08 86° WNW 19:47:52 10° SSW
SL-16 R/B 2.9 19:37:49 10° NNW 19:43:15 44° NE 19:48:39 10° SE
NOSS 3-4 (C) 4.5 19:37:15 10° NW 19:43:26 46° NE 19:50:40 10° ESE
USA 186 2.6 19:41:21 10° SE 19:43:44 28° ENE 19:46:09 10° N
Okean 1 Rocket 4.2 19:44:28 10° SSW 19:48:45 49° WNW 19:53:05 10° N
Cosmos 2084 Rocket 3.9 19:46:56 10° NW 19:51:03 54° SW 19:55:10 10° SSE
Cosmos 2233 Rocket 4.1 19:45:11 10° S 19:51:15 61° E 19:57:19 10° NNE
ATLAS 2AS CENTAUR R/B 4.3 19:45:51 10° W 19:52:15 39° NNW 19:58:34 10° NE
SKYMED 3 4.3 19:53:16 10° NNE 19:57:14 76° ESE 20:01:12 10° S
CZ-2C R/B 4.4 19:56:39 10° E 19:57:29 11° ENE 19:58:19 10° NE
COSMOS 2406 3.7 19:53:05 10° S 19:58:25 41° ESE 20:03:46 10° NE
Cosmos 1980 Rocket 3.3 19:53:27 10° NW 19:58:47 41° WSW 20:04:03 10° S
Okean-O 2.7 19:55:33 10° SSE 19:59:52 66° ENE 20:04:14 10° N
Cosmos 1782 2.5 19:56:25 10° S 19:59:56 84° W 20:03:29 10° N
CZ-4 R/B 3.0 19:57:11 10° SSW 20:00:23 29° W 20:03:37 10° NNW
Ariane Rocket 3.9 19:58:05 10° SE 20:02:36 34° ENE 20:07:08 10° N
Cosmos 1933 4.3 20:02:11 11° SSE 20:05:17 26° E 20:08:30 10° NNE
SPOT 3 Rocket 4.1 20:01:10 10° SE 20:05:59 45° ENE 20:10:52 10° N
Cosmos 1758 Rocket 3.9 20:02:09 10° N 20:06:28 53° ENE 20:10:37 11° SSE
Spot 2 Rocket 3.5 20:02:50 10° SSE 20:07:51 86° ENE 20:12:55 10° NNW
Cosmos 1725 Rocket 4.3 20:03:44 10° SSW 20:09:59 73° W 20:16:14 10° N
Cosmos 2333 Rocket 2.5 20:05:31 10° NNW 20:11:11 60° NE 20:16:16 13° SE
ERS-1 Rocket 4.1 20:09:17 10° S 20:14:01 43° W 20:18:49 10° NNW
Tsikada Rocket 4.1 20:12:06 10° NNW 20:18:16 78° W 20:24:25 10° S
Cosmos 2360 Rocket 2.8 20:19:33 10° NNW 20:25:03 47° NE 20:29:39 14° SE
USA 245 4.4 20:19:40 12° SSE 20:25:09 70° ENE 20:30:40 10° N
Cosmos 1461 2.7 20:22:45 10° SSW 20:26:19 47° ESE 20:29:52 10° NE
CZ-4B R/B 4.3 20:21:44 10° S 20:27:07 44° W 20:32:29 10° NNW
CZ-4B R/B 3.6 20:25:36 15° SE 20:29:25 56° ENE 20:34:11 10° N
CZ-4C R/B 3.6 20:26:05 10° W 20:30:20 37° NNW 20:35:46 10° NE
Cosmos 1602 Rocket 3.8 20:26:27 10° N 20:30:42 53° ENE 20:33:50 17° SSE
Cosmos 1992 Rocket 4.0 20:25:46 10° SSW 20:30:59 88° WNW 20:36:14 10° NNE
YAOGAN 11 4.1 20:29:29 10° NNE 20:33:57 89° WNW 20:38:25 10° SSW
ISS -3.3 20:33:54 10° W 20:37:13 62° N 20:40:34 10° ENE
Cosmos 1777 Rocket 4.3 20:32:15 10° NNW 20:37:25 55° ENE 20:41:09 18° SE
Cosmos 2219 Rocket 3.1 20:33:06 10° NNW 20:38:25 40° NE 20:42:48 15° ESE
Meteor 1-25 Rocket 4.2 20:33:40 10° N 20:39:21 72° ENE 20:43:46 17° SSE
Cosmos 220 Rocket 4.1 20:36:01 12° S 20:39:35 46° ESE 20:43:31 10° NE
Cosmos 1437 Rocket 2.4 20:36:40 13° S 20:39:48 69° E 20:43:23 10° NNE
USA 290 3.7 20:39:46 19° ESE 20:39:55 19° ESE 20:42:14 10° NE
SL-08 R/B 4.2 20:39:29 10° N 20:44:11 52° WNW 20:48:45 10° SW
Cosmos 1503 Rocket 4.4 20:40:51 10° NNW 20:45:55 50° ENE 20:49:23 19° SE
DEBRIS 3.5 20:43:45 10° W 20:46:59 86° S 20:57:19 10° E
Cosmos 1626 Rocket 4.1 20:42:45 10° NNW 20:47:03 57° W 20:51:00 12° S
Cosmos 2098 Rocket 3.4 20:44:23 18° SSE 20:47:43 48° E 20:51:44 10° NNE
NOSS 3-3 (A) 4.1 20:44:20 10° SW 20:49:35 69° NW 20:55:59 10° NE
Terra 4.0 20:48:16 10° SW 20:51:52 22° W 20:55:30 10° NW
Cosmos 2151 3.2 20:50:59 10° NNW 20:55:04 62° W 20:58:09 16° S
Cosmos 2322 Rocket 2.2 20:51:16 10° NNW 20:56:58 80° ENE 21:00:46 22° SE
Cosmos 1486 Rocket 4.0 20:51:48 10° NNW 20:57:06 85° ENE 21:00:35 22° SSE
Cosmos 1513 Rocket 4.4 20:51:14 10° S 20:57:26 81° E 21:03:35 10° N
IRS-1C Rocket 4.1 20:53:40 18° SSE 20:57:36 89° WSW 21:02:54 10° NNW
Cosmos 1464 Rocket 4.1 20:53:50 17° SSE 20:58:36 59° E 21:04:40 10° NNE
Cosmos 909 Rocket 4.5 20:53:42 10° SW 20:59:56 67° NW 21:06:33 10° NE
Cosmos 2082 Rocket 3.6 20:56:10 10° WSW 21:01:34 42° NW 21:06:59 10° NNE
USA 306 3.6 21:01:15 10° WNW 21:03:33 24° NNW 21:04:50 13° NE
Meteor 2-10 4.2 20:59:44 10° N 21:05:30 76° ENE 21:09:14 23° SSE
Cosmos 1606 Rocket 3.7 21:03:17 24° SSE 21:05:38 54° E 21:09:51 10° NNE
CZ-4B R/B 3.4 21:09:42 20° SSW 21:11:40 42° W 21:14:59 10° NNW
Cosmos 1766 4.3 21:09:42 10° NNE 21:12:23 23° ENE 21:13:02 22° E
USA 186 4.2 21:11:39 10° SW 21:13:10 14° W 21:14:42 10° WNW
Cosmos 1726 Rocket 3.7 21:12:35 30° SSE 21:14:07 46° E 21:18:00 10° NNE
Cosmos 2237 Rocket 4.4 21:10:38 10° N 21:14:24 18° NE 21:18:09 10° ENE
Cosmos 1428 Rocket 4.5 21:08:57 10° N 21:15:13 76° E 21:19:09 24° SSE
Okean O Rocket 3.6 21:12:03 10° SW 21:15:28 23° W 21:18:55 10° NW
Cosmos 540 Rocket 3.9 21:13:17 25° SSE 21:15:39 41° ESE 21:20:29 10° NE
Cosmos 1072 Rocket 4.5 21:11:32 15° S 21:16:49 84° E 21:23:12 10° N
Aureole 1 Rocket 4.5 21:12:58 10° NNW 21:18:27 48° ENE 21:22:39 21° SE
Cosmos 1805 3.3 21:17:52 10° NNW 21:21:04 53° W 21:22:21 30° SSW
Cosmos 2278 4.2 21:17:21 10° NW 21:22:52 51° WSW 21:26:23 22° S
Meteor 1-5 Rocket 4.4 21:19:47 10° NNW 21:25:31 73° W 21:29:21 23° S
COSMOS 2428 3.9 21:21:02 10° NNW 21:26:12 34° NE 21:30:13 15° ESE
SL-16 R/B 3.2 21:22:04 10° NW 21:27:16 38° WSW 21:30:55 18° SSW
CZ-2C R/B 2.8 21:27:14 34° SW 21:27:52 40° W 21:30:32 10° NNW
Okean 1-7 Rocket 3.8 21:23:45 10° NNW 21:28:12 68° W 21:30:35 27° S
Geosat 4.3 21:28:27 10° NE 21:33:15 44° ESE 21:35:08 31° SSE
NOSS 3-4 (A) 4.0 21:27:22 10° NW 21:34:01 62° SW 21:38:39 25° SSE
NOSS 3-4 (C) 4.0 21:28:00 10° NW 21:34:40 62° SW 21:39:17 26° SSE
Cosmos-2242 3.4 21:34:03 36° SE 21:35:06 44° E 21:39:02 10° NNE
Cosmos 2034 Rocket 4.0 21:32:54 24° S 21:36:59 75° E 21:43:20 10° NNE
Ariane Rocket 4.0 21:38:06 18° SSW 21:41:24 39° W 21:46:10 10° NNW
USA 234 4.4 21:42:20 10° ENE 21:47:10 22° SE 21:47:10 22° SE
TSX-5 4.1 21:46:27 10° NNW 21:49:26 40° NE 21:50:06 35° E
Nadezhda 4 Rocket 4.4 21:46:21 10° NNW 21:52:18 54° W 21:56:13 22° SSW
Cosmos 2333 Rocket 3.7 21:50:24 10° NW 21:55:05 27° WSW 21:58:17 17° SSW
Helios 1B rocket 2.2 21:55:11 49° ESE 21:55:44 57° ENE 21:59:11 10° N
Cosmos 1763 Rocket 3.5 21:53:12 22° SSW 21:56:44 85° WNW 22:02:02 10° NNE
Cosmos 1825 Rocket 4.5 21:53:14 10° NNW 21:57:19 40° W 21:59:17 25° SW
Okean 1 3.9 21:56:18 28° SW 21:57:46 46° WNW 22:01:16 10° N
Cosmos 1470 3.4 21:55:01 10° N 21:58:01 31° ENE 21:58:12 31° E
Cosmos 1536 2.6 21:54:54 10° N 21:58:35 70° E 21:59:12 56° SE
Cosmos 1707 2.1 21:59:51 68° NNE 21:59:51 68° NNE 22:02:23 10° N
Cosmos 2221 3.7 21:59:07 25° E 21:59:33 26° E 22:03:01 10° NNE
Cosmos 1898 Rocket 4.0 21:54:39 10° NNW 21:59:43 50° ENE 22:02:03 29° ESE
Cosmos 1634 Rocket 4.0 21:57:45 32° SSE 22:00:40 65° E 22:06:49 10° NNE
CSL-04 DEB 4.3 22:01:35 50° ESE 22:02:10 58° ENE 22:05:45 10° N
Cosmos 1833 4.2 21:57:58 18° SSW 22:02:15 86° WNW 22:07:55 10° NNE
Cosmos 2297 Rocket 3.8 22:01:44 17° ESE 22:02:19 17° E 22:05:52 10° ENE
Cosmos 1953 Rocket 3.8 21:59:11 10° NNW 22:03:28 59° W 22:04:56 37° SSW
CZ-2C R/B 4.4 21:59:21 10° NNE 22:03:30 37° E 22:04:14 34° ESE
Cosmos 44 3.4 21:59:25 10° NW 22:04:51 83° SW 22:06:56 38° SSE
Cosmos 990 Rocket 4.3 21:59:49 10° NNW 22:04:53 56° WSW 22:06:54 34° SSW
Cosmos 2360 Rocket 3.2 22:03:48 10° NW 22:08:54 35° WSW 22:11:23 24° SSW
Meteor 2-6 Rocket 4.5 22:08:15 35° SSE 22:10:40 60° E 22:16:31 10° NNE
Cosmos 2322 3.8 22:05:28 10° NNW 22:11:10 69° ENE 22:13:46 33° SE
USA 290 4.0 22:12:10 18° WSW 22:13:51 28° WNW 22:16:38 10° N
ISS -3.9 22:10:50 10° WNW 22:14:11 86° NNE 22:14:19 81° ENE
Cosmos 2026 Rocket 4.3 22:08:40 10° NNW 22:14:58 64° W 22:18:17 29° SSW
BREEZE-M DEB (TANK) 4.0 22:13:03 10° W 22:13:11 11° W 22:13:11 11° W
Cosmos 2058 Rocket 3.0 22:14:25 45° SSW 22:15:45 83° W 22:20:06 10° N
Helios 1A 3.1 22:17:27 10° N 22:21:20 64° WNW 22:22:30 41° SW
Cosmos 2219 Rocket 2.9 22:17:05 10° NW 22:22:24 43° WSW 22:24:29 31° SSW
Cosmos 1975 2.9 22:21:29 10° N 22:25:07 53° ENE 22:25:24 51° E
KORONAS-FOTON 3.4 22:25:06 73° WSW 22:25:14 75° W 22:28:39 10° N
Cosmos 841 Rocket 3.8 22:28:15 42° SE 22:29:26 50° ESE 22:34:29 10° NNE
RESURS DK-1 2.2 22:28:01 10° NNW 22:32:01 83° ENE 22:32:35 64° SE
ARIANE 5 R/B 2.6 22:32:16 51° SSE 22:33:20 79° ENE 22:37:49 10° NNW
ALOS 2 2.7 22:33:58 49° SE 22:35:00 68° ENE 22:39:23 10° N
Cosmos 2322 Rocket 4.0 22:36:26 10° WNW 22:40:19 19° W 22:42:34 15° SW
Cosmos 1271 Rocket 2.4 22:46:13 70° WNW 22:46:13 70° WNW 22:49:35 10° N
Cosmos 372 Rocket 4.2 22:41:37 10° NNW 22:46:36 54° WSW 22:47:53 42° SSW
SL-16 R/B 4.3 22:42:35 10° NNW 22:47:02 23° NE 22:51:27 10° E
Cosmos 1842 3.3 22:47:39 50° WNW 22:47:39 50° WNW 22:50:36 10° N
Lacrosse 4 Rocket 3.3 22:51:57 17° E 22:51:57 17° E 22:53:55 10° ENE
Spot 4 3.8 22:51:57 50° SSW 22:53:07 70° WSW 22:57:55 10° NNW
Meteor 2-9 Rocket 4.1 22:48:47 10° NNW 22:54:10 73° W 22:55:56 44° S
PSLV R/B 3.6 22:51:04 10° NNE 22:55:21 67° ESE 22:55:59 57° SSE
Cosmos 2237 Rocket 2.5 22:53:58 10° NNW 22:59:38 64° ENE 23:02:17 31° SE
CZ-2C R/B 3.2 22:58:57 31° SE 23:01:08 50° ENE 23:06:08 10° N
BREEZE-M DEB (TANK) 4.1 22:46:24 10° WSW 23:01:41 85° SSE 23:05:27 10° ENE
Cosmos 1980 3.8 22:58:07 10° NNW 23:03:48 72° ENE 23:06:13 35° SE
ARGOS Delta rocket 4.0 22:59:36 10° N 23:04:47 85° WNW 23:06:31 44° SSW
Cosmos 858 Rocket 4.4 22:59:57 10° NNW 23:05:10 87° ENE 23:06:42 47° SSE
Cosmos 2142 Rocket 4.5 23:05:16 38° SSW 23:07:55 81° W 23:14:10 10° N
Cosmos 1937 Rocket 3.5 23:03:09 10° NNW 23:08:15 65° WSW 23:09:27 49° SSW
Cosmos 2180 Rocket 4.5 23:06:36 38° SSW 23:09:13 82° W 23:15:35 10° N
COSMOS 2428 3.0 23:05:09 10° NW 23:10:41 53° WSW 23:12:11 42° SSW
Cosmos 2227 Rocket 3.5 23:11:04 24° ESE 23:12:09 25° ESE 23:16:43 10° NE
Meteor 2-4 Rocket 4.2 23:11:49 36° SE 23:13:22 45° E 23:18:36 10° NNE
NOSS 0 Rocket 3.9 23:07:15 10° NW 23:13:23 66° WSW 23:15:26 42° S
Meteor 1-11 Rocket 3.7 23:08:19 10° NNW 23:13:59 77° W 23:15:45 45° S
MetOp-A 3.7 23:18:10 52° SSE 23:19:24 88° WSW 23:24:06 10° NNW
Meteor 1-10 Rocket 4.3 23:17:23 41° SSW 23:19:35 84° WNW 23:25:35 10° N
Cosmos 2263 Rocket 3.8 23:20:54 18° ESE 23:22:08 19° E 23:25:59 10° ENE
Cosmos 1812 Rocket 3.9 23:25:18 47° SW 23:26:14 58° WNW 23:30:36 10° N
Cosmos 1238 Rocket 3.0 23:25:54 57° ESE 23:26:15 60° E 23:30:32 10° NNE
USA 234 3.2 23:24:32 10° ENE 23:31:05 69° SE 23:34:29 30° SW
SeaSat 1 3.1 23:28:37 24° ESE 23:31:21 53° NE 23:36:07 10° NNW
CZ-2C R/B 3.3 23:27:55 10° NNE 23:33:43 85° ESE 23:35:48 43° S
Meteor 1-27 Rocket 3.7 23:32:34 43° S 23:34:35 86° ESE 23:40:22 10° NNE
ACS3 Solar Sail 2.7 23:29:28 10° NNE 23:34:55 35° E 23:37:20 26° SE
Cosmos 2221 3.6 23:35:23 29° WSW 23:36:25 33° WNW 23:40:16 10° N
ATLAS 2AS CENTAUR R/B 4.2 23:31:42 10° NW 23:37:52 35° NNE 23:44:01 10° E
Meteor 2-20 Rocket 4.2 23:37:28 43° S 23:39:26 81° E 23:45:10 10° NNE
BlueWalker 3 3.5 23:41:18 22° E 23:41:18 22° E 23:42:53 10° ENE
Cosmos 2297 Rocket 2.1 23:43:29 41° SSW 23:45:34 87° WNW 23:51:16 10° NNE
Okean 3 Rocket 4.3 23:43:28 10° N 23:47:51 47° ENE 23:49:21 34° SE
Landsat 5 3.4 23:47:10 10° NNE 23:51:14 65° ESE 23:51:40 60° SE
Cosmos 1842 Rocket 3.6 23:53:33 53° SSE 23:54:22 67° E 23:58:45 10° NNE
GP-B 3.9 23:51:04 10° NNW 23:55:08 39° W 23:56:01 35° WSW
